LUME 1 (43908 NORAD) Tracking and Keplerian Element Data

This shows tracking and keplerian element data for the satellite.

Feedback or suggestion? Click here.




ElementValue
Catalog43908
NameLUME 1
Epoch Orbit2235
Epoch Day142.81977119
Epoch Year2019
RAAN48.8012
Inclination97.292
Eccentricity0.0023518
Argument of Perigee86.5501
Mean Anonmoly273.8426
Mean Motion15.24277754
Decay Rate7.77E-06
L11 43908U 18111AJ 19142.81977119 .00000777 00000-0 34476-4 0 9995
L22 43908 97.2920 48.8012 0023518 86.5501 273.8426 15.24277754 22350

Live tracking and technical data element details for LUME 1 (NORAD 43908). LUME 1 can be tracked NOW for your location showing map with azimuth and elevation plus other details from your city location.

Track the satellite on the map from your city or location and see movement details for azimuth, elevation, latitude, longitude, range, height, and movement on the map or in text.







IsCatalogInMostPopularTable: catalog: 43908, numindb: 105
Update: records affected: 1



GetName: 43908 LUME 1

Hit Count: updated at: Thu, 23 May 2019 14:46:16 GMT